Vorticity
5 5 5 5 5 5 5 5 5 5 5 5 6 6 6 7 8 8 9 9 9 9 9 9 9 9 9 9 9 10 10 11 11 11 11 11 12 12 12 13 14 15 15 16 17 17 17 17 16 15 14 12 12 11 12 12 12 13 13 13 13 14 15 16 17 17 16 14 12 10 9 8 9 10 11 12 13 13 13 12 12 12 12 12 12 12
5 5 5 5 5 6 5 5 6 6 5 5 6 6 6 8 8 8 9 9 9 9 9 9 9 9 9 9 10 10 11 11 11 11 11 11 12 12 13 14 14 15 16 16 17 17 18 17 16 15 14 13 12 12 12 13 13 13 13 13 13 14 15 16 17 18 17 15 13 11 10 9 9 10 11 13 13 14 13 13 12 12 11 11 11 11
5 6 6 6 6 6 5 5 6 6 6 6 6 6 7 8 8 8 8 9 9 9 10 9 9 10 10 10 10 10 11 11 12 12 12 12 12 13 14 14 15 15 16 17 17 18 18 18 17 16 14 13 13 12 12 13 13 13 13 13 13 14 14 16 17 18 18 16 15 13 11 10 10 10 11 13 14 14 14 13 12 11 11 10 10 10
5 6 5 5 6 6 6 5 5 6 6 6 6 7 7 8 9 9 9 8 9 9 10 10 10 10 10 11 11 11 11 12 12 12 12 12 13 14 14 15 15 16 16 16 17 18 18 18 17 16 15 14 13 13 13 13 13 13 13 13 13 13 14 15 17 17 17 17 16 15 13 11 11 11 11 13 14 14 14 13 12 12 11 10 10 9
6 6 5 5 5 6 6 6 6 6 6 7 7 7 8 8 8 8 9 9 10 10 10 10 10 10 11 11 11 11 11 12 12 12 12 13 13 14 15 15 15 15 16 16 17 18 18 18 18 16 15 14 13 13 13 13 14 14 13 13 13 13 14 15 16 16 17 18 17 16 14 13 12 11 11 12 14 14 14 14 13 12 11 10 9 9
6 6 5 5 6 5 5 6 6 6 6 7 7 8 8 8 8 8 9 10 10 10 10 10 10 11 11 12 12 12 12 12 12 13 13 13 14 15 15 15 15 15 15 16 17 17 18 18 17 16 15 14 13 13 13 13 14 14 13 13 13 13 13 14 14 15 17 18 18 17 16 14 13 12 12 12 13 14 15 15 14 13 11 10 9 9
5 6 5 6 6 6 5 6 6 6 6 6 7 7 8 9 9 9 9 10 10 10 11 11 11 12 12 12 12 12 12 12 13 13 14 14 14 15 15 15 15 15 15 15 16 17 18 18 17 16 15 14 13 13 13 13 14 14 13 13 13 12 12 12 13 14 15 16 17 17 16 15 14 13 12 12 13 14 14 15 14 14 12 11 10 9
5 5 6 6 6 6 6 6 6 6 6 6 6 6 8 9 10 10 10 10 10 10 10 11 12 13 14 13 13 13 12 12 12 13 14 15 15 15 15 15 15 14 14 15 16 16 17 17 17 16 15 14 13 13 13 13 13 13 13 13 13 12 12 12 12 12 13 14 15 16 16 16 15 14 13 13 13 13 14 15 15 14 13 12 11 10
5 5 6 6 5 5 5 6 6 6 6 7 7 7 7 8 9 9 10 10 11 10 10 10 11 13 15 14 13 13 13 12 13 13 15 16 16 15 15 14 14 14 14 14 15 16 16 17 16 16 15 14 14 13 13 13 13 13 13 13 13 12 12 12 11 11 12 12 13 14 14 15 15 15 14 14 13 13 13 14 15 15 14 13 12 11
6 6 5 6 6 6 5 5 6 6 6 7 8 8 8 8 8 8 9 10 10 11 11 11 11 12 13 15 15 13 12 13 14 16 17 17 17 15 14 14 14 13 13 13 14 14 15 16 16 16 15 15 14 13 13 12 12 12 12 13 13 13 12 12 12 11 11 11 11 12 12 13 14 14 14 14 14 14 14 14 15 15 15 14 13 13
6 6 5 5 6 6 7 6 6 5 6 7 7 8 9 9 9 8 9 10 10 10 11 12 12 12 12 13 14 13 12 12 14 16 20 19 18 16 14 13 13 13 12 12 12 13 14 15 15 16 16 15 14 13 12 12 11 11 12 12 13 13 13 13 12 12 11 11 10 10 11 11 12 12 13 13 14 14 14 14 14 14 14 14 14 14
6 5 6 5 5 5 6 6 6 6 6 6 6 7 9 10 10 10 9 9 9 10 10 12 13 14 14 12 12 12 13 14 14 15 17 19 18 16 14 13 12 12 11 11 11 12 13 14 15 15 16 15 14 13 12 11 11 11 12 12 13 13 13 13 13 12 12 11 11 10 10 10 10 11 11 12 12 13 13 14 14 14 14 14 14 14
6 6 5 5 5 5 5 5 5 6 6 7 7 8 8 8 9 10 11 10 10 10 10 10 12 14 16 15 13 12 12 15 16 16 17 18 18 17 15 13 11 11 10 10 10 11 12 13 14 15 15 14 14 13 12 11 11 12 12 12 13 13 13 13 13 13 12 12 11 11 11 10 10 10 10 10 11 11 12 12 13 13 14 14 14 14
6 6 6 6 6 6 5 5 5 6 7 8 8 8 8 7 8 9 10 11 11 11 11 12 12 13 13 14 14 14 13 14 15 17 20 19 18 17 15 13 12 10 9 9 9 10 10 12 13 14 14 14 13 12 12 12 12 12 12 13 13 13 13 13 13 12 12 12 12 12 12 11 11 11 10 10 10 10 11 11 11 12 12 13 13 14
5 5 5 6 5 5 5 6 6 7 7 8 8 8 8 8 9 9 10 10 10 9 10 12 13 14 14 14 13 12 15 15 16 17 20 20 19 17 15 13 12 10 9 8 9 9 10 11 12 13 13 13 12 12 12 12 12 12 13 13 13 13 13 12 12 12 12 12 13 13 12 12 12 12 11 11 11 11 10 11 11 11 11 12 12 12
5 5 5 5 5 5 6 6 6 7 7 7 7 8 8 8 9 9 10 10 9 8 9 9 10 13 17 16 14 13 14 17 19 19 19 19 18 17 15 13 11 10 9 9 8 8 9 10 11 12 12 12 12 12 12 12 12 13 13 13 13 12 12 12 12 12 12 13 13 13 13 13 13 13 13 12 12 12 11 11 11 11 11 11 11 12
5 5 6 5 5 6 6 6 7 7 7 7 8 9 9 8 8 9 10 9 9 9 10 9 9 10 10 13 16 16 15 18 19 20 20 19 17 16 16 13 12 10 10 9 9 8 9 10 11 11 11 11 11 11 11 12 12 13 13 12 12 12 11 12 12 12 12 13 13 13 13 14 14 14 13 13 13 12 12 12 11 11 10 10 11 11
6 6 5 6 6 6 5 6 7 7 7 8 8 9 10 10 9 9 10 9 9 9 10 11 11 11 10 12 13 14 15 18 18 18 21 19 17 15 15 14 13 12 11 11 10 9 9 10 10 10 10 10 10 10 11 12 12 12 12 12 11 11 11 11 11 12 12 12 13 13 14 14 14 14 14 14 13 13 12 12 11 11 10 10 10 11
5 5 6 6 6 6 6 6 7 7 7 8 8 8 9 9 10 10 10 11 11 10 9 10 11 12 14 15 13 12 14 17 18 18 21 18 16 14 14 13 13 13 14 13 11 10 10 10 10 10 10 9 10 10 10 11 11 11 11 11 11 11 11 11 11 12 12 12 13 13 14 14 14 14 14 13 13 12 12 11 11 10 10 10 11 11
5 6 6 5 5 5 6 7 7 7 8 7 7 8 9 8 9 10 11 11 11 11 10 11 12 12 14 15 14 13 14 15 17 20 22 19 15 13 14 14 14 14 15 14 13 11 11 10 10 10 9 9 9 10 10 10 10 10 10 10 10 10 11 11 12 12 12 13 13 13 14 14 14 14 14 13 12 12 11 11 11 11 11 11 12 12
5 6 6 5 5 6 6 7 7 7 7 7 7 8 9 9 10 11 11 11 11 11 12 15 15 13 11 13 13 12 11 13 16 18 19 18 14 12 14 14 15 16 16 15 14 12 12 11 10 10 10 10 10 10 10 10 10 9 9 9 10 10 11 12 12 13 13 13 14 14 14 14 14 14 13 13 12 12 11 11 11 11 12 12 13 14
6 5 5 6 6 6 6 6 6 7 7 7 8 9 8 8 9 10 10 11 11 12 14 16 14 11 10 13 13 12 12 15 15 15 14 16 14 12 13 14 15 17 17 15 14 13 12 12 11 10 10 10 10 10 10 10 9 9 9 9 9 10 11 12 13 13 14 14 14 15 15 15 14 14 13 13 12 12 12 12 12 12 13 14 15 16
6 5 4 5 6 6 6 6 6 7 7 8 9 9 9 9 9 9 10 11 12 13 14 15 13 12 12 14 14 14 16 16 15 14 15 15 14 12 12 13 15 17 18 15 14 13 12 12 12 11 11 11 11 11 11 10 9 9 9 9 9 10 11 12 13 14 14 14 15 15 15 15 15 14 14 13 13 13 13 13 13 13 14 15 16 16
6 5 5 5 6 6 6 6 6 7 7 8 9 9 9 10 10 10 10 11 12 13 13 12 13 14 16 15 15 15 16 14 13 13 16 16 13 11 11 12 14 15 16 15 14 13 13 13 13 13 12 12 12 12 11 10 9 9 9 9 10 10 11 12 13 14 14 14 15 15 15 15 15 15 15 15 14 14 14 14 14 15 15 16 17 17
5 5 5 6 6 6 7 7 7 7 7 8 8 9 9 10 10 11 11 12 12 13 12 13 14 15 14 13 14 15 15 13 12 12 14 14 12 11 10 11 12 13 14 14 14 14 13 14 14 13 13 13 13 12 11 10 10 9 9 9 10 11 12 13 13 13 14 14 14 15 15 16 16 16 16 16 16 16 16 16 16 16 17 17 17 18
6 6 6 6 7 7 7 7 7 7 7 8 8 9 9 9 9 9 11 12 12 12 11 14 16 16 12 13 14 15 13 13 13 13 14 13 11 10 10 10 11 12 13 14 14 14 14 14 14 14 14 14 13 12 12 11 10 10 10 10 11 11 12 13 13 13 13 14 14 14 15 16 16 17 18 18 18 18 17 17 17 17 17 18 18 18
6 6 7 7 7 7 7 7 7 7 8 8 9 9 8 8 8 10 12 12 11 10 11 13 14 14 13 15 16 15 11 11 12 14 15 13 11 10 9 9 9 10 11 13 14 14 14 14 14 14 14 14 13 12 12 11 11 10 10 11 11 12 13 13 13 13 13 13 14 14 15 16 17 18 18 18 18 18 17 17 17 17 18 18 18 18
6 7 7 7 7 7 7 7 7 7 8 8 8 9 8 8 9 11 12 10 10 11 13 13 13 12 13 16 16 14 10 11 13 14 14 13 11 10 9 9 9 9 10 12 13 14 15 15 15 15 14 14 13 12 12 12 12 11 12 12 12 13 14 14 14 13 13 13 14 14 15 16 17 18 18 18 18 17 17 17 17 17 17 18 17 17
7 7 7 7 7 7 7 7 7 7 8 8 8 9 9 10 11 12 10 9 10 12 14 14 14 13 14 14 14 13 13 13 14 14 13 12 10 9 8 8 8 9 9 11 13 14 14 14 15 15 15 14 13 13 12 12 12 12 13 13 14 14 15 14 14 14 13 13 13 14 15 16 17 17 17 17 16 16 16 16 16 17 17 17 17 16
7 7 7 7 7 7 7 7 7 7 8 8 8 9 9 11 12 12 10 10 11 13 13 13 13 13 12 11 12 14 16 14 14 14 11 12 10 8 8 7 8 8 9 10 12 13 13 13 14 14 14 14 14 13 13 13 13 13 14 14 15 15 16 15 15 14 13 13 13 13 14 15 15 16 16 16 15 15 15 15 16 16 17 17 17 16
7 7 7 7 7 7 7 7 7 8 8 8 9 9 9 10 11 11 10 11 12 13 13 13 13 13 12 11 12 14 15 13 13 13 11 11 10 8 8 7 7 8 8 9 11 12 13 13 13 14 14 14 14 14 13 13 14 14 14 15 16 16 16 16 15 14 13 13 12 12 12 13 13 14 14 14 14 14 14 14 15 15 15 16 16 17
6 7 7 6 6 7 7 7 8 8 8 9 9 10 10 10 10 11 11 12 12 13 13 13 14 14 14 15 15 15 12 11 12 12 11 10 9 8 7 7 7 7 8 8 9 11 12 13 14 14 14 14 14 14 14 14 14 14 14 15 16 16 16 16 15 14 13 12 11 11 10 11 11 12 12 13 13 13 14 14 14 14 15 15 16 16
6 7 7 7 7 7 8 8 8 8 9 9 9 10 10 10 11 11 12 12 13 13 13 12 13 13 14 16 17 16 13 11 11 12 10 9 8 7 7 7 7 7 8 9 9 10 11 12 14 14 13 14 14 14 14 15 15 15 15 15 15 16 16 16 15 14 13 12 11 10 9 9 10 10 11 12 12 13 13 13 13 14 14 15 15 16
7 7 7 8 8 8 8 8 9 9 9 9 10 10 10 10 11 11 12 12 13 14 14 13 12 12 12 14 15 15 14 13 12 11 9 8 8 7 6 6 7 7 8 8 10 11 12 12 13 14 14 14 14 14 14 15 16 16 16 15 15 14 15 15 14 13 12 11 11 10 9 9 9 9 10 11 12 12 13 13 13 13 13 14 16 17
7 7 8 8 8 8 8 9 9 9 9 10 10 10 10 11 11 11 12 12 13 14 14 15 14 13 12 11 12 13 14 13 12 10 8 8 7 6 6 7 7 7 8 8 9 11 12 12 13 13 14 14 14 14 14 15 16 17 16 15 15 14 14 14 13 13 12 11 11 10 9 8 8 9 9 10 11 12 12 12 12 12 12 13 15 16
7 8 8 8 8 8 8 8 8 8 9 10 10 10 11 11 11 12 12 12 13 13 13 14 16 16 16 14 13 13 12 11 10 9 8 7 6 6 6 7 7 7 8 8 9 10 12 12 13 13 13 14 14 14 14 15 16 17 17 16 15 14 14 14 13 12 11 11 11 10 9 8 8 8 8 9 10 11 12 12 12 11 11 12 13 15
7 8 8 8 8 8 8 8 8 8 9 10 10 11 11 11 12 12 12 13 13 13 13 14 15 16 17 17 16 15 13 12 10 9 8 7 6 6 6 7 7 8 8 8 9 10 11 12 12 12 12 13 14 15 15 16 16 17 17 16 15 14 14 14 13 12 11 11 11 10 10 9 8 8 8 9 10 12 12 13 13 12 12 12 12 13
8 8 7 7 8 8 8 8 9 9 9 10 10 10 11 11 11 12 12 13 13 13 13 13 14 15 16 16 16 15 13 11 10 9 8 7 6 6 5 6 7 8 9 9 9 9 10 10 11 11 12 13 14 14 15 16 17 17 17 16 15 14 13 13 13 12 12 11 11 11 11 10 9 8 7 8 10 12 14 15 15 15 14 14 14 14
7 7 7 7 7 8 8 8 9 9 9 10 10 10 10 11 12 12 13 13 14 14 15 14 14 15 15 15 15 14 13 12 10 9 8 7 6 6 5 6 7 8 10 10 10 10 10 10 10 10 12 13 14 14 15 16 17 17 16 15 15 15 14 13 13 12 12 11 11 11 11 11 10 9 8 8 9 11 14 15 16 16 16 17 16 15
7 7 8 8 8 8 8 9 8 8 9 10 10 11 11 12 12 13 14 14 15 16 16 17 18 18 16 15 14 13 13 12 10 9 8 7 6 6 6 6 7 8 9 11 11 11 11 11 10 10 11 12 14 15 15 16 16 16 16 16 15 14 14 13 13 13 12 12 12 12 12 12 11 11 9 8 9 10 12 14 15 15 16 18 19 18
7 7 8 8 8 9 10 9 9 9 9 9 10 10 12 12 11 12 12 13 15 16 16 17 19 21 21 19 16 14 13 12 11 10 9 8 7 6 6 6 7 8 9 11 12 12 11 11 10 11 11 12 13 14 15 15 15 16 16 15 15 15 14 14 14 13 13 13 13 13 13 13 13 12 11 10 10 11 11 12 13 14 14 16 17 18
8 8 8 7 7 8 9 8 9 9 10 10 10 11 11 11 11 11 10 11 12 14 14 15 16 19 21 21 19 17 15 13 12 11 10 9 8 7 6 6 7 8 10 11 12 12 12 11 11 10 11 12 13 14 15 15 14 14 14 15 15 15 14 14 14 14 15 15 15 15 15 15 15 14 13 12 11 11 12 13 13 13 13 14 15 15
8 8 7 7 8 8 7 8 9 9 9 11 11 12 11 11 11 11 11 12 12 12 13 15 16 18 19 19 19 19 19 16 14 12 11 9 8 7 7 7 8 8 10 11 12 12 12 12 12 11 11 12 13 13 14 14 14 13 13 14 15 16 16 16 16 16 16 17 17 18 18 18 18 17 16 14 13 12 13 14 14 13 13 14 14 14
8 7 7 8 8 8 8 10 10 10 9 10 11 11 11 11 11 12 12 13 12 12 13 14 15 17 19 20 20 19 20 17 15 14 12 10 9 8 7 7 8 9 11 12 12 12 11 12 12 12 12 12 12 12 12 13 13 13 13 13 14 15 16 18 19 18 18 18 19 19 20 20 20 19 18 16 14 13 14 14 14 14 13 13 14 14
7 7 8 8 8 8 10 10 9 9 10 10 10 11 11 11 11 12 12 12 12 12 13 11 12 13 17 19 20 20 19 18 17 15 13 11 10 9 8 8 9 10 12 13 13 12 11 11 12 12 13 13 12 12 12 12 12 12 13 14 14 15 16 17 18 18 18 19 19 20 20 20 20 20 20 18 15 14 13 13 13 13 13 13 13 14
8 8 8 8 9 10 10 9 8 9 10 10 11 11 11 11 11 12 12 12 12 12 12 11 11 12 14 15 16 18 19 18 17 16 14 11 10 9 8 8 9 11 12 14 14 14 13 12 11 11 12 12 12 11 11 11 11 12 13 14 15 16 16 16 16 16 17 17 18 18 19 19 20 20 19 17 16 14 13 13 12 12 12 12 13 14
8 8 8 8 9 10 10 9 9 9 10 10 11 11 11 11 11 12 12 12 12 12 11 11 13 14 14 13 14 16 18 17 16 15 13 12 10 9 8 8 10 12 14 14 15 15 15 13 12 11 11 11 11 11 11 11 11 12 13 15 16 16 16 15 15 15 14 15 15 16 18 18 19 18 17 15 14 14 13 12 12 12 12 12 12 13
7 7 8 8 8 9 9 9 9 10 10 10 10 11 11 11 11 11 11 12 12 12 11 12 13 14 14 14 15 16 17 16 16 14 13 11 10 8 7 8 9 12 14 16 16 17 16 14 12 11 10 9 10 10 11 11 12 13 14 15 15 14 14 14 14 14 13 13 13 14 16 16 18 18 19 15 13 12 12 12 13 12 12 12 12 12
7 8 8 8 9 9 9 9 9 10 10 10 10 11 12 12 12 12 12 11 11 11 12 12 13 13 14 14 15 16 17 17 15 14 12 11 9 8 7 8 9 11 14 16 17 18 18 17 15 12 10 9 9 10 11 12 13 14 14 14 13 13 12 12 13 13 13 13 13 14 14 14 16 18 19 17 15 14 13 13 14 14 13 13 13 13
8 8 8 8 9 9 9 9 9 10 10 10 10 11 10 11 12 13 12 12 12 12 13 13 13 13 14 14 15 16 17 16 15 13 12 10 9 8 7 8 9 11 13 15 16 17 17 17 16 14 13 10 9 10 10 12 14 15 14 13 12 11 11 12 12 12 12 13 14 14 14 14 16 17 19 19 18 16 14 14 14 14 14 14 14 14
8 8 9 9 9 9 9 9 9 10 10 10 11 11 10 10 11 11 12 12 13 13 14 13 13 14 14 15 15 16 16 15 14 12 11 9 8 7 7 8 9 11 13 14 15 16 16 15 14 13 14 12 11 10 11 12 13 14 13 12 11 10 10 11 11 12 12 13 13 14 15 16 17 18 19 21 21 20 17 15 14 15 15 15 14 15
Height
3085 3082 3080 3078 3076 3073 3071 3068 3066 3063 3061 3059 3057 3054 3052 3049 3046 3043 3040 3037 3035 3032 3029 3025 3022 3019 3017 3014 3011 3008 3005 3002 2999 2996 2992 2989 2986 2983 2980 2977 2975 2972 2969 2967 2964 2962 2959 2957 2954 2952 2950 2948 2946 2944 2942 2940 2938 2937 2935 2933 2931 2929 2927 2926 2925 2924 2922 2920 2919 2917 2916 2915 2914 2912 2912 2911 2910 2908 2907 2907 2906 2905 2904 2904 2903 2902
3084 3082 3079 3077 3074 3072 3069 3067 3065 3063 3061 3058 3056 3053 3051 3047 3044 3042 3038 3036 3033 3030 3028 3025 3022 3018 3015 3012 3009 3007 3003 3001 2997 2994 2991 2988 2985 2982 2979 2976 2973 2970 2968 2965 2963 2960 2958 2955 2953 2951 2948 2947 2944 2942 2941 2939 2937 2935 2933 2932 2930 2928 2927 2925 2923 2922 2920 2919 2917 2916 2915 2914 2912 2911 2910 2909 2908 2907 2906 2905 2905 2904 2903 2902 2902 2901
3082 3080 3078 3076 3073 3071 3068 3066 3064 3062 3060 3058 3055 3052 3049 3046 3043 3041 3037 3035 3032 3029 3026 3023 3021 3017 3014 3011 3008 3005 3002 2999 2996 2993 2990 2986 2983 2980 2977 2974 2972 2969 2966 2964 2961 2959 2956 2954 2952 2949 2947 2945 2943 2941 2939 2937 2936 2934 2932 2930 2928 2927 2925 2924 2922 2920 2918 2917 2916 2915 2913 2912 2911 2910 2909 2908 2907 2906 2905 2904 2903 2902 2902 2901 2900 2900
3081 3079 3077 3075 3072 3070 3068 3066 3064 3061 3059 3057 3054 3051 3047 3045 3042 3039 3037 3034 3031 3028 3025 3022 3019 3016 3013 3010 3007 3004 3001 2998 2995 2992 2988 2985 2982 2979 2976 2973 2970 2967 2965 2962 2960 2957 2955 2953 2951 2948 2946 2944 2942 2940 2938 2936 2934 2932 2931 2929 2927 2925 2924 2922 2920 2918 2917 2916 2914 2913 2912 2911 2910 2909 2907 2906 2905 2904 2903 2902 2902 2901 2900 2900 2899 2898
3080 3078 3076 3074 3072 3070 3067 3065 3063 3060 3058 3055 3052 3050 3047 3044 3041 3038 3035 3032 3029 3027 3024 3021 3018 3015 3012 3008 3005 3002 2999 2997 2993 2990 2987 2983 2980 2977 2974 2972 2969 2966 2963 2961 2959 2956 2954 2952 2949 2947 2945 2943 2941 2939 2937 2935 2933 2931 2929 2927 2926 2924 2922 2921 2919 2917 2916 2914 2913 2912 2911 2909 2908 2907 2906 2905 2904 2903 2902 2901 2900 2900 2899 2898 2897 2897
3079 3077 3075 3073 3071 3069 3067 3065 3062 3059 3057 3054 3051 3049 3046 3043 3040 3037 3034 3031 3028 3025 3022 3020 3017 3014 3011 3007 3004 3001 2998 2995 2992 2989 2986 2982 2979 2976 2973 2970 2967 2964 2962 2960 2957 2955 2953 2951 2948 2946 2944 2942 2940 2937 2936 2934 2932 2930 2928 2927 2925 2923 2921 2919 2917 2916 2914 2913 2912 2910 2909 2908 2907 2906 2905 2904 2902 2902 2901 2900 2899 2898 2897 2897 2896 2895
3078 3077 3075 3072 3070 3068 3067 3064 3062 3059 3056 3053 3050 3047 3045 3042 3040 3037 3034 3031 3028 3025 3021 3018 3015 3012 3010 3007 3003 3000 2997 2994 2991 2988 2985 2982 2978 2975 2972 2969 2966 2963 2961 2958 2956 2954 2952 2950 2947 2945 2943 2941 2938 2937 2935 2933 2931 2929 2927 2925 2923 2922 2920 2918 2917 2915 2913 2912 2910 2909 2908 2907 2905 2904 2903 2902 2901 2900 2899 2898 2897 2897 2896 2895 2894 2894
3077 3076 3074 3072 3069 3067 3065 3063 3061 3058 3055 3052 3050 3047 3044 3041 3038 3036 3033 3031 3028 3024 3021 3017 3014 3011 3008 3005 3002 2999 2996 2993 2990 2987 2983 2980 2977 2973 2970 2967 2964 2962 2959 2957 2955 2953 2951 2949 2946 2944 2942 2940 2938 2936 2934 2932 2930 2928 2926 2924 2922 2921 2919 2917 2915 2914 2912 2911 2909 2908 2907 2905 2904 2903 2902 2901 2900 2898 2898 2897 2896 2895 2894 2893 2893 2892
3077 3075 3073 3071 3069 3067 3064 3061 3059 3057 3054 3052 3049 3047 3044 3041 3037 3035 3032 3029 3027 3024 3021 3018 3014 3010 3007 3004 3001 2998 2995 2991 2988 2985 2982 2978 2974 2971 2968 2965 2963 2960 2958 2956 2954 2952 2950 2948 2946 2943 2941 2939 2937 2935 2933 2931 2929 2927 2925 2923 2921 2920 2918 2916 2914 2913 2911 2910 2908 2907 2905 2904 2902 2902 2900 2899 2898 2897 2896 2895 2894 2893 2892 2892 2891 2890
3076 3074 3072 3070 3068 3066 3063 3060 3057 3055 3052 3050 3047 3045 3043 3040 3037 3034 3031 3028 3025 3022 3019 3017 3014 3011 3006 3002 2999 2997 2993 2990 2987 2983 2981 2977 2973 2970 2967 2964 2961 2959 2957 2955 2953 2951 2949 2947 2945 2942 2940 2938 2936 2934 2932 2930 2928 2926 2924 2922 2920 2919 2917 2915 2913 2912 2910 2908 2907 2905 2904 2902 2901 2900 2899 2897 2896 2895 2894 2893 2892 2892 2891 2890 2889 2888
3075 3073 3071 3069 3067 3064 3062 3059 3057 3054 3051 3049 3046 3044 3042 3040 3037 3034 3031 3027 3024 3021 3017 3014 3012 3009 3006 3002 2998 2995 2992 2989 2986 2982 2979 2976 2973 2969 2966 2963 2960 2958 2956 2954 2952 2950 2948 2946 2944 2942 2940 2937 2935 2933 2931 2929 2927 2925 2923 2922 2920 2918 2916 2914 2912 2911 2909 2907 2906 2904 2903 2901 2900 2898 2897 2896 2895 2894 2892 2892 2891 2890 2889 2888 2887 2887
3075 3072 3070 3068 3065 3063 3060 3058 3056 3053 3051 3049 3046 3043 3040 3038 3035 3032 3029 3026 3023 3020 3016 3012 3009 3007 3004 3001 2997 2994 2991 2987 2984 2981 2978 2975 2972 2968 2965 2962 2959 2957 2954 2952 2951 2949 2947 2945 2943 2941 2939 2937 2935 2932 2930 2928 2926 2924 2922 2921 2919 2917 2915 2913 2912 2910 2908 2906 2905 2903 2902 2900 2899 2897 2896 2895 2893 2892 2891 2890 2889 2888 2887 2886 2885 2884
3074 3072 3069 3067 3064 3062 3059 3057 3055 3052 3050 3048 3045 3042 3039 3036 3033 3030 3027 3024 3021 3018 3015 3011 3007 3004 3001 2998 2995 2992 2989 2987 2983 2980 2977 2974 2971 2968 2965 2961 2958 2956 2953 2951 2949 2947 2946 2944 2942 2940 2938 2936 2934 2932 2930 2927 2925 2923 2922 2920 2918 2916 2914 2912 2910 2908 2907 2905 2904 2902 2900 2899 2897 2896 2895 2893 2892 2891 2890 2888 2887 2886 2885 2884 2883 2882
3073 3071 3068 3066 3063 3061 3059 3056 3054 3052 3049 3046 3044 3041 3038 3035 3032 3029 3026 3023 3020 3017 3013 3010 3007 3003 3000 2997 2993 2990 2987 2985 2982 2978 2975 2972 2970 2967 2964 2961 2958 2955 2952 2950 2948 2946 2944 2942 2941 2939 2937 2935 2933 2931 2929 2927 2925 2922 2921 2919 2917 2915 2913 2911 2909 2907 2906 2904 2902 2901 2899 2898 2896 2895 2893 2892 2891 2889 2888 2887 2886 2885 2883 2882 2881 2880
3072 3070 3067 3065 3063 3060 3057 3055 3052 3050 3047 3045 3042 3039 3037 3033 3031 3028 3025 3022 3019 3016 3012 3009 3006 3002 2999 2997 2993 2989 2986 2983 2981 2978 2974 2971 2969 2966 2963 2960 2957 2954 2952 2949 2947 2945 2943 2941 2939 2937 2936 2934 2932 2930 2927 2926 2924 2922 2920 2918 2916 2914 2912 2910 2908 2906 2905 2903 2901 2900 2898 2896 2895 2893 2892 2891 2889 2888 2887 2886 2884 2883 2882 2881 2879 2878
3071 3069 3067 3064 3062 3059 3057 3054 3051 3049 3046 3043 3041 3038 3035 3032 3029 3026 3023 3020 3017 3014 3011 3008 3005 3001 2998 2994 2992 2989 2985 2982 2979 2977 2974 2971 2968 2965 2963 2960 2957 2953 2951 2948 2946 2944 2942 2940 2938 2936 2934 2932 2930 2928 2927 2924 2922 2921 2919 2917 2915 2913 2911 2909 2907 2905 2903 2902 2900 2898 2897 2895 2893 2892 2891 2889 2888 2887 2885 2884 2882 2881 2880 2879 2878 2877
3070 3068 3066 3063 3061 3058 3055 3053 3050 3048 3045 3043 3040 3037 3034 3031 3028 3025 3022 3018 3015 3012 3008 3006 3002 3000 2996 2992 2989 2986 2983 2981 2978 2975 2973 2970 2967 2965 2962 2960 2957 2954 2951 2947 2945 2943 2941 2938 2937 2935 2933 2931 2929 2927 2925 2923 2922 2919 2917 2915 2913 2912 2909 2907 2906 2904 2902 2900 2898 2897 2895 2894 2892 2891 2889 2887 2886 2885 2883 2882 2881 2880 2878 2877 2876 2875
3069 3067 3064 3062 3060 3057 3055 3052 3049 3047 3045 3042 3039 3036 3033 3030 3027 3023 3020 3017 3013 3010 3006 3002 2999 2996 2994 2991 2987 2984 2982 2979 2977 2974 2972 2969 2967 2964 2962 2959 2957 2954 2951 2947 2945 2942 2940 2938 2936 2933 2931 2929 2927 2926 2924 2922 2920 2918 2916 2914 2912 2910 2908 2906 2904 2902 2901 2899 2897 2895 2894 2892 2891 2889 2887 2886 2884 2883 2882 2880 2879 2878 2876 2875 2874 2873
3068 3066 3063 3061 3058 3056 3054 3052 3049 3046 3044 3041 3038 3035 3032 3029 3025 3022 3019 3015 3012 3008 3005 3001 2997 2994 2991 2989 2986 2983 2980 2978 2976 2974 2972 2969 2966 2963 2961 2959 2956 2954 2951 2948 2945 2942 2939 2937 2935 2932 2931 2928 2927 2924 2922 2921 2919 2917 2915 2913 2911 2909 2907 2905 2903 2901 2899 2897 2896 2894 2892 2890 2889 2887 2886 2884 2883 2882 2880 2878 2877 2876 2874 2873 2872 2870
3067 3065 3062 3060 3057 3055 3053 3050 3048 3046 3043 3040 3037 3034 3031 3028 3025 3022 3018 3014 3011 3007 3003 3000 2997 2993 2990 2987 2984 2982 2979 2977 2974 2972 2970 2968 2966 2963 2961 2959 2956 2953 2951 2948 2945 2942 2939 2937 2934 2932 2930 2927 2925 2923 2921 2919 2917 2915 2913 2911 2909 2907 2906 2903 2902 2900 2898 2896 2894 2892 2891 2889 2887 2886 2884 2882 2881 2880 2878 2877 2875 2874 2872 2871 2870 2868
3066 3064 3061 3059 3057 3054 3052 3049 3047 3044 3042 3039 3036 3032 3030 3027 3024 3020 3017 3014 3010 3006 3002 2998 2995 2991 2988 2985 2982 2980 2978 2975 2973 2971 2969 2967 2965 2963 2961 2958 2956 2953 2951 2948 2945 2942 2939 2936 2934 2931 2929 2927 2924 2922 2920 2917 2916 2913 2912 2910 2908 2906 2904 2902 2900 2898 2897 2895 2893 2891 2889 2887 2886 2884 2882 2881 2879 2878 2877 2875 2873 2872 2870 2869 2867 2866
3065 3063 3060 3058 3056 3053 3051 3048 3046 3043 3040 3037 3034 3031 3028 3025 3022 3018 3015 3012 3008 3005 3001 2997 2994 2991 2988 2985 2982 2979 2977 2974 2972 2970 2968 2966 2964 2962 2960 2958 2956 2953 2951 2948 2945 2942 2939 2936 2933 2931 2928 2926 2924 2921 2919 2916 2914 2912 2910 2908 2907 2905 2903 2901 2899 2897 2895 2893 2891 2890 2888 2886 2884 2882 2881 2879 2878 2876 2875 2873 2871 2870 2868 2867 2865 2864
3064 3062 3060 3057 3055 3052 3050 3047 3045 3042 3039 3036 3033 3030 3027 3023 3020 3017 3013 3010 3007 3003 3000 2997 2994 2990 2987 2985 2982 2979 2976 2973 2971 2969 2967 2965 2963 2961 2959 2957 2955 2953 2950 2947 2945 2942 2939 2936 2933 2931 2928 2926 2923 2920 2918 2915 2913 2911 2909 2907 2905 2903 2902 2899 2897 2896 2894 2892 2890 2888 2887 2885 2883 2881 2880 2878 2877 2875 2873 2871 2870 2868 2867 2865 2863 2862
3063 3061 3059 3056 3054 3051 3048 3046 3043 3040 3037 3034 3032 3028 3025 3022 3019 3016 3012 3009 3006 3003 3000 2997 2994 2990 2987 2984 2981 2978 2976 2973 2971 2968 2966 2964 2962 2960 2958 2956 2954 2952 2950 2947 2945 2942 2939 2936 2933 2931 2928 2925 2922 2920 2917 2915 2912 2910 2908 2906 2904 2902 2900 2898 2896 2894 2892 2891 2889 2887 2885 2883 2882 2880 2878 2877 2875 2873 2872 2870 2868 2867 2865 2863 2862 2860
3062 3060 3057 3055 3052 3050 3047 3044 3041 3038 3036 3033 3030 3027 3024 3021 3018 3014 3011 3008 3005 3003 3000 2997 2995 2992 2988 2985 2981 2978 2975 2973 2970 2967 2965 2962 2960 2958 2957 2955 2953 2951 2949 2947 2944 2942 2939 2936 2933 2930 2927 2925 2922 2919 2917 2914 2912 2909 2907 2905 2902 2901 2899 2897 2895 2893 2891 2889 2887 2886 2884 2882 2881 2879 2877 2875 2874 2872 2870 2868 2867 2865 2863 2862 2860 2858
3061 3059 3056 3054 3051 3048 3046 3043 3040 3037 3034 3032 3029 3026 3023 3020 3017 3014 3011 3008 3006 3003 3000 2998 2995 2992 2989 2985 2982 2978 2975 2972 2969 2967 2964 2962 2959 2957 2955 2953 2951 2950 2948 2946 2944 2941 2938 2936 2933 2930 2927 2924 2922 2919 2917 2914 2912 2909 2907 2904 2902 2900 2897 2896 2893 2892 2890 2888 2886 2884 2882 2881 2879 2877 2876 2874 2872 2871 2869 2867 2865 2864 2862 2861 2859 2857
3060 3058 3055 3052 3050 3047 3045 3042 3039 3037 3034 3031 3028 3025 3022 3020 3017 3014 3011 3008 3006 3002 3000 2997 2994 2991 2988 2984 2981 2977 2974 2971 2968 2966 2963 2961 2958 2956 2953 2952 2949 2948 2947 2945 2943 2940 2937 2935 2932 2929 2926 2924 2921 2919 2917 2914 2911 2909 2906 2904 2901 2899 2897 2895 2892 2890 2888 2887 2885 2883 2882 2880 2878 2877 2875 2873 2871 2869 2867 2866 2864 2863 2861 2859 2858 2857
3059 3057 3054 3052 3049 3047 3044 3042 3039 3036 3033 3030 3027 3024 3022 3019 3016 3013 3010 3007 3004 3002 2998 2996 2992 2990 2987 2983 2980 2977 2973 2970 2967 2965 2962 2960 2958 2955 2953 2951 2948 2946 2944 2943 2942 2940 2937 2934 2931 2928 2926 2923 2921 2918 2916 2914 2911 2908 2906 2903 2901 2898 2896 2894 2892 2889 2887 2885 2884 2882 2880 2879 2877 2875 2873 2872 2870 2868 2867 2865 2863 2862 2860 2859 2857 2856
3059 3056 3054 3051 3049 3046 3044 3041 3038 3035 3032 3030 3027 3024 3021 3018 3015 3012 3009 3006 3003 3000 2997 2994 2991 2988 2985 2982 2980 2977 2973 2970 2967 2964 2962 2959 2957 2954 2952 2950 2947 2945 2942 2941 2940 2939 2937 2934 2930 2927 2925 2922 2920 2917 2915 2913 2911 2908 2906 2903 2901 2898 2896 2893 2891 2889 2887 2884 2882 2881 2879 2877 2876 2874 2872 2871 2869 2867 2866 2864 2862 2861 2859 2858 2857 2855
3058 3056 3053 3051 3048 3046 3043 3040 3037 3035 3032 3029 3026 3023 3020 3017 3014 3011 3008 3005 3002 2999 2996 2993 2990 2987 2983 2981 2978 2975 2972 2969 2967 2964 2961 2958 2956 2953 2951 2948 2946 2944 2941 2938 2936 2935 2935 2933 2931 2927 2924 2922 2919 2917 2914 2912 2909 2907 2905 2902 2900 2897 2895 2893 2891 2888 2886 2884 2882 2880 2878 2877 2875 2873 2871 2870 2868 2866 2865 2863 2862 2860 2859 2857 2856 2855
3057 3055 3052 3050 3047 3045 3042 3039 3036 3033 3031 3028 3025 3022 3019 3016 3013 3010 3007 3004 3001 2998 2995 2992 2989 2986 2982 2979 2976 2973 2970 2968 2965 2962 2960 2957 2955 2952 2950 2947 2945 2943 2940 2937 2934 2932 2930 2930 2929 2927 2924 2921 2918 2916 2913 2911 2908 2906 2903 2901 2899 2897 2895 2892 2890 2888 2886 2883 2881 2879 2877 2875 2874 2872 2870 2869 2867 2866 2864 2862 2861 2860 2858 2857 2856 2855
3057 3054 3052 3049 3047 3044 3041 3038 3035 3032 3030 3027 3024 3021 3018 3015 3012 3009 3006 3003 3000 2997 2994 2991 2988 2985 2982 2979 2976 2972 2970 2967 2964 2962 2959 2957 2954 2952 2949 2947 2944 2942 2940 2937 2935 2932 2928 2926 2926 2925 2923 2920 2917 2915 2912 2910 2907 2904 2902 2900 2898 2896 2894 2892 2890 2887 2885 2883 2881 2878 2877 2875 2873 2871 2869 2868 2866 2865 2863 2862 2860 2859 2858 2857 2855 2854
3056 3053 3051 3048 3046 3043 3040 3037 3034 3032 3029 3026 3023 3021 3018 3015 3012 3009 3006 3002 2999 2996 2993 2990 2987 2984 2981 2978 2975 2972 2969 2967 2964 2961 2958 2956 2954 2951 2949 2946 2944 2941 2939 2937 2934 2932 2929 2926 2924 2922 2921 2919 2917 2914 2912 2909 2907 2904 2901 2899 2897 2895 2893 2891 2889 2887 2885 2882 2880 2878 2876 2874 2872 2870 2869 2867 2866 2864 2862 2861 2859 2858 2857 2856 2854 2853
3055 3053 3050 3047 3045 3042 3039 3037 3034 3031 3028 3026 3023 3020 3017 3014 3011 3008 3005 3001 2998 2995 2992 2989 2986 2983 2980 2977 2974 2972 2969 2966 2963 2961 2958 2956 2953 2951 2948 2946 2943 2940 2938 2936 2933 2931 2929 2926 2923 2921 2919 2918 2916 2914 2911 2908 2906 2903 2900 2898 2896 2894 2892 2890 2888 2886 2884 2882 2879 2877 2875 2873 2872 2870 2868 2867 2865 2863 2862 2860 2858 2857 2856 2854 2853 2852
3054 3052 3049 3047 3044 3042 3039 3036 3034 3031 3028 3026 3023 3020 3017 3014 3010 3007 3004 3000 2997 2994 2991 2988 2985 2982 2979 2977 2973 2971 2968 2965 2963 2960 2958 2955 2953 2951 2948 2946 2943 2940 2937 2935 2932 2930 2928 2925 2923 2920 2918 2916 2915 2913 2911 2908 2906 2903 2900 2897 2895 2893 2891 2889 2887 2885 2883 2881 2879 2877 2875 2872 2871 2869 2867 2866 2864 2862 2861 2859 2857 2856 2854 2853 2852 2851
3053 3051 3049 3046 3044 3041 3039 3036 3034 3031 3028 3026 3022 3020 3017 3013 3010 3007 3003 3000 2997 2993 2990 2987 2984 2981 2978 2976 2973 2970 2968 2965 2963 2960 2958 2955 2953 2951 2948 2946 2943 2940 2937 2934 2932 2929 2927 2925 2922 2920 2917 2915 2913 2912 2910 2908 2906 2903 2900 2898 2895 2893 2891 2888 2886 2884 2882 2880 2878 2876 2874 2872 2870 2868 2867 2865 2863 2862 2860 2859 2857 2855 2854 2852 2851 2849
3053 3051 3048 3046 3044 3041 3039 3036 3034 3031 3028 3025 3022 3019 3016 3012 3009 3006 3002 2999 2996 2993 2990 2987 2983 2980 2977 2975 2972 2970 2967 2965 2962 2960 2958 2956 2953 2951 2948 2946 2943 2940 2937 2934 2931 2928 2926 2924 2922 2919 2917 2915 2912 2910 2908 2907 2905 2903 2901 2898 2895 2892 2890 2888 2886 2884 2882 2880 2878 2876 2873 2871 2869 2867 2866 2864 2863 2861 2860 2858 2857 2855 2853 2852 2850 2849
3052 3050 3048 3046 3043 3041 3038 3036 3033 3031 3027 3025 3021 3018 3015 3012 3008 3005 3002 2999 2996 2993 2990 2987 2983 2980 2977 2974 2972 2969 2967 2965 2962 2960 2958 2956 2953 2951 2948 2946 2943 2941 2937 2934 2931 2928 2926 2923 2920 2918 2916 2915 2912 2910 2907 2905 2904 2902 2900 2898 2895 2892 2890 2888 2886 2883 2882 2879 2877 2875 2873 2871 2869 2867 2865 2863 2862 2861 2859 2858 2856 2855 2853 2852 2850 2848
3052 3050 3047 3045 3042 3040 3037 3035 3032 3029 3027 3023 3020 3017 3014 3011 3008 3005 3002 2999 2996 2993 2990 2987 2984 2981 2977 2974 2972 2969 2967 2965 2962 2961 2958 2956 2953 2951 2948 2946 2943 2941 2938 2935 2932 2929 2926 2923 2920 2917 2915 2913 2912 2910 2907 2905 2903 2901 2899 2897 2895 2893 2890 2887 2885 2883 2881 2879 2877 2875 2873 2871 2869 2866 2864 2862 2861 2860 2858 2857 2856 2854 2853 2852 2850 2849
3052 3049 3047 3044 3042 3039 3037 3034 3031 3028 3025 3022 3019 3017 3014 3011 3008 3005 3002 2999 2996 2993 2990 2987 2984 2981 2978 2975 2972 2970 2967 2965 2963 2961 2958 2956 2954 2951 2949 2946 2943 2941 2938 2935 2932 2929 2926 2923 2921 2918 2916 2913 2911 2909 2907 2905 2902 2900 2898 2897 2894 2892 2890 2887 2885 2883 2881 2879 2877 2875 2873 2871 2868 2866 2864 2862 2860 2859 2857 2856 2855 2853 2852 2851 2850 2848
3051 3048 3046 3044 3041 3038 3036 3033 3030 3027 3024 3022 3019 3016 3014 3011 3008 3006 3002 2999 2996 2993 2990 2987 2984 2981 2978 2975 2972 2970 2967 2965 2963 2961 2958 2956 2954 2951 2949 2946 2943 2940 2938 2935 2932 2929 2926 2923 2921 2918 2915 2913 2911 2909 2907 2905 2902 2900 2897 2896 2893 2892 2889 2887 2885 2882 2880 2878 2877 2875 2872 2871 2868 2866 2864 2862 2860 2858 2857 2855 2854 2852 2851 2850 2848 2847
3050 3048 3045 3043 3040 3037 3035 3032 3029 3027 3024 3022 3019 3017 3014 3011 3009 3006 3003 3000 2997 2994 2991 2988 2985 2982 2979 2976 2973 2970 2968 2966 2963 2961 2958 2956 2954 2951 2949 2946 2943 2940 2937 2935 2932 2929 2927 2923 2921 2918 2915 2913 2911 2909 2907 2905 2902 2900 2897 2895 2893 2891 2889 2887 2885 2882 2880 2878 2876 2874 2872 2870 2868 2866 2864 2861 2859 2857 2856 2854 2853 2852 2850 2849 2848 2847
3050 3047 3045 3042 3040 3037 3034 3032 3029 3026 3024 3021 3019 3016 3014 3011 3008 3006 3003 3000 2997 2994 2991 2988 2985 2982 2980 2977 2974 2971 2968 2966 2963 2961 2958 2956 2954 2951 2949 2946 2943 2940 2937 2934 2931 2929 2927 2924 2921 2918 2915 2913 2911 2908 2906 2904 2902 2899 2897 2894 2892 2890 2888 2886 2884 2882 2880 2878 2876 2874 2872 2870 2868 2866 2863 2861 2859 2857 2856 2854 2853 2851 2850 2848 2847 2846
3049 3047 3044 3042 3039 3036 3034 3032 3029 3027 3024 3022 3019 3016 3013 3010 3007 3005 3002 2999 2996 2993 2990 2987 2985 2982 2980 2977 2975 2972 2969 2966 2963 2961 2958 2956 2954 2951 2949 2946 2943 2940 2937 2934 2931 2927 2925 2923 2921 2918 2916 2913 2911 2908 2906 2903 2901 2899 2896 2894 2891 2889 2887 2885 2883 2882 2880 2878 2876 2874 2872 2870 2868 2866 2864 2861 2859 2857 2856 2854 2853 2851 2850 2848 2847 2846
3048 3046 3044 3041 3039 3036 3034 3032 3029 3027 3024 3021 3018 3016 3013 3010 3007 3004 3001 2998 2995 2992 2989 2987 2984 2981 2978 2976 2974 2972 2969 2967 2964 2961 2958 2956 2954 2952 2949 2947 2944 2941 2937 2934 2931 2927 2924 2922 2920 2918 2916 2913 2911 2908 2905 2902 2900 2898 2896 2894 2892 2889 2887 2885 2883 2881 2879 2877 2876 2874 2872 2870 2868 2866 2864 2862 2859 2857 2856 2854 2853 2851 2850 2848 2847 2845
3048 3046 3043 3041 3039 3036 3034 3031 3029 3026 3023 3021 3018 3015 3012 3009 3007 3003 3001 2997 2995 2992 2988 2986 2983 2980 2977 2975 2972 2970 2968 2965 2963 2961 2958 2956 2954 2952 2949 2947 2944 2941 2938 2935 2931 2928 2924 2921 2918 2916 2914 2912 2910 2907 2905 2902 2899 2897 2895 2893 2891 2889 2887 2885 2883 2881 2879 2877 2875 2873 2872 2870 2868 2866 2864 2862 2860 2857 2856 2854 2852 2851 2850 2848 2847 2845
3048 3046 3043 3041 3038 3036 3033 3031 3028 3026 3023 3020 3017 3015 3012 3009 3006 3003 3000 2997 2994 2991 2988 2985 2982 2980 2977 2974 2971 2969 2966 2964 2962 2959 2957 2955 2953 2951 2949 2947 2944 2942 2938 2936 2932 2929 2925 2921 2918 2915 2913 2911 2909 2907 2904 2902 2899 2897 2895 2893 2891 2889 2887 2885 2883 2881 2879 2877 2875 2873 2872 2870 2867 2866 2864 2862 2860 2858 2856 2854 2852 2851 2849 2847 2846 2845
3048 3046 3043 3041 3038 3036 3033 3031 3028 3026 3023 3020 3017 3014 3012 3008 3006 3002 2999 2996 2993 2991 2988 2985 2982 2979 2976 2973 2970 2968 2965 2963 2961 2958 2956 2954 2952 2950 2948 2946 2944 2942 2939 2936 2933 2930 2926 2922 2918 2914 2912 2909 2907 2905 2903 2901 2899 2897 2895 2892 2891 2889 2887 2885 2883 2881 2879 2877 2875 2873 2871 2869 2867 2865 2863 2862 2860 2858 2856 2854 2852 2850 2848 2847 2845 2844
3047 3045 3043 3040 3038 3035 3033 3031 3028 3025 3022 3020 3017 3014 3011 3008 3005 3002 2999 2996 2993 2990 2987 2985 2982 2979 2976 2973 2970 2967 2965 2962 2960 2957 2955 2953 2951 2949 2947 2945 2943 2941 2939 2937 2934 2931 2928 2924 2919 2915 2911 2908 2906 2904 2903 2901 2899 2897 2895 2892 2890 2888 2887 2885 2883 2881 2879 2877 2875 2873 2870 2868 2866 2864 2862 2860 2859 2857 2855 2853 2852 2850 2848 2847 2845 2843
3047 3045 3042 3040 3037 3035 3032 3030 3027 3025 3022 3019 3016 3013 3010 3007 3004 3002 2999 2996 2993 2990 2987 2984 2981 2978 2976 2973 2970 2967 2964 2962 2959 2957 2954 2952 2950 2947 2945 2943 2940 2938 2937 2935 2933 2931 2928 2925 2921 2916 2912 2908 2906 2904 2902 2901 2899 2897 2895 2892 2890 2888 2886 2885 2883 2881 2879 2877 2874 2872 2870 2867 2865 2863 2861 2859 2857 2856 2854 2852 2851 2849 2847 2846 2844 2842
3046 3044 3042 3039 3037 3035 3032 3030 3027 3024 3022 3019 3016 3013 3010 3007 3004 3002 2999 2996 2993 2990 2987 2984 2981 2978 2975 2972 2970 2967 2964 2962 2959 2957 2954 2952 2949 2947 2944 2941 2938 2936 2933 2931 2929 2927 2926 2924 2922 2918 2914 2909 2906 2903 2902 2900 2898 2897 2895 2892 2890 2888 2886 2884 2882 2880 2878 2876 2874 2871 2869 2867 2864 2862 2860 2858 2856 2855 2853 2852 2850 2848 2847 2845 2844 2842